STARLINK-1239

decayed
NORAD ID: 45193 Int'l Des: 2020-012 Owner: SPXS Country: US Constellation: starlink
LEOCIRCULAR

关于 STARLINK-1239

正在加载描述...

高度历史

Altitude vs Time

uPlot chart will show altitude changes over time

两行轨道根数

1 45193U 20012R 24223.00507262 .16108671 12036-4 42009-2 0 9995
2 45193 53.0300 35.6659 0011943 273.4953 226.3595 16.27624006248066
Epoch: Aug 10, 2024 • Age: 9659 hours

当前状态

Position data unavailable
发射日期 Feb 17, 2020
运行时间 5.5 years
衰减日期 Aug 10, 2024
类型 internet

技术详情

分类 Payload
质量 260.00 kg
干质量 248.00 kg
总质量 260.00 kg
长度 0.20 m
直径 2.80 m
跨度 9.00 m
形状 Box + pan
制造商 SPXS
平台类型 Starlink
阶段状态 Reentered
所有者/国家 SPXS/US

大型星座

Loading constellations...